Weather in Redruth

United Kingdom     50°14′32″N   5°12′48″W
temp.,
°C
wind,
m/s
gust,
m/s
humid.,
%
clouds,
%
prec.,
mm/h
press.,
hPa
HPBL,
m
17 august, wed
wed1701:00+16n91295100 12.4 1010672
04:00+16n101396100 4.3 1011705
07:00+16n9119499 6.1 1012665
10:00+17n798975 0.6 1013670
13:00+19n678036 1.2 1014742
16:00+20n777630 0.1 1014797
19:00+18n788452 0.1 1015592
22:00+16n489120 0.0 1017276
18 august, thu
thu1801:00+16n479190 0.1 1016280
04:00+16nnw4790100 0.0 1016322
07:00+16nw4688100 0.1 1017321
10:00+19wnw45688 0.0 1017651
13:00+20w566989 0.0 1017797
16:00+20sw688289 0.1 1016672
19:00+19wsw6109367 0.8 1015523
22:00+18w599578 0.3 1016426
19 august, fri
fri1901:00+17w479687 0.5 1016292
04:00+16wnw588376 0.1 1016423
07:00+15nw468314 0.1 1017363
10:00+17wnw456974 0.0 1018924
13:00+19wnw56575 0.0 10181379
16:00+19wnw676215 0.0 10181304
19:00+18wnw576576 0.1 10191338
22:00+15w58821 0.2 1019412
20 august, sat
sat2001:00+14w478414 0.3 1019364
04:00+15wsw598498 0.1 1019429
07:00+15wsw59837 0.1 1019445
10:00+19wsw896933 0.1 10191159
13:00+20w8106783 0.1 10191249
16:00+20w896697 0.0 10181170
19:00+18w797565 0.1 10191017
22:00+16w59875 0.0 1019397
21 august, sun
sun2101:00+16w48895 0.1 1019344
04:00+15w349021 0.1 1019223
07:00+15w239017 0.4 1019183
10:00+19w3476100 0.5 1020731
13:00+20wsw4564100 0.6 10191069
16:00+20sw566389 0.0 1018979
19:00+19ssw467398 0.0 1018700
22:00+17s4889100 0.1 1016394